Wetterdaten: Samstag, 12.12.2015
Datum Zeit Auen-Temp. Temp gefhlt Luftfeuchte Luftdruck Regen Wind Richtung Richtung Taupunkt Windben
12.12.2015 00:00 3,6 C 2,9 C 65 % 1028,6 hPa 0,0 mm 9,3 km/h (2 Bft) SW 225 -2,4 C 12,4 km/h (3 Bft)
12.12.2015 00:05 3,5 C 2,9 C 65 % 1028,6 hPa 0,0 mm 8,5 km/h (2 Bft) NW 315 -2,4 C 13,7 km/h (3 Bft)
12.12.2015 00:10 3,9 C 3,1 C 65 % 1028,6 hPa 0,0 mm 9,8 km/h (2 Bft) NW 315 -2,1 C 25,6 km/h (4 Bft)
12.12.2015 00:15 3,7 C 2,9 C 65 % 1028,0 hPa 0,0 mm 10,1 km/h (2 Bft) W 270 -2,3 C 11,7 km/h (2 Bft)
12.12.2015 00:20 3,8 C 3,1 C 65 % 1028,0 hPa 0,0 mm 9,3 km/h (2 Bft) W-SW 247 -2,2 C 12,2 km/h (2 Bft)
12.12.2015 00:25 3,7 C 3,0 C 64 % 1028,0 hPa 0,0 mm 9,8 km/h (2 Bft) W-SW 247 -2,5 C 17,3 km/h (3 Bft)
12.12.2015 00:30 3,8 C 3,1 C 64 % 1028,0 hPa 0,0 mm 9,1 km/h (2 Bft) W-SW 247 -2,4 C 27,2 km/h (4 Bft)
12.12.2015 00:35 3,8 C 3,1 C 64 % 1027,7 hPa 0,0 mm 9,6 km/h (2 Bft) W 270 -2,4 C 13,5 km/h (3 Bft)
12.12.2015 00:40 3,8 C 3,2 C 64 % 1027,7 hPa 0,0 mm 9,1 km/h (2 Bft) W 270 -2,4 C 16,1 km/h (3 Bft)
12.12.2015 00:45 4,0 C 3,1 C 64 % 1027,7 hPa 0,0 mm 10,9 km/h (2 Bft) NW 315 -2,2 C 13,5 km/h (3 Bft)
12.12.2015 00:50 4,0 C 3,2 C 63 % 1027,7 hPa 0,0 mm 11,4 km/h (2 Bft) W-SW 247 -2,4 C 30,6 km/h (5 Bft)
12.12.2015 00:55 4,2 C 3,5 C 63 % 1027,7 hPa 0,0 mm 12,7 km/h (3 Bft) W 270 -2,2 C 33,4 km/h (5 Bft)
12.12.2015 01:00 4,0 C 3,3 C 62 % 1027,7 hPa 0,0 mm 12,4 km/h (3 Bft) W-SW 247 -2,6 C 12,4 km/h (3 Bft)
12.12.2015 01:05 3,9 C 3,1 C 62 % 1027,7 hPa 0,0 mm 11,4 km/h (2 Bft) W 270 -2,7 C 7,8 km/h (2 Bft)
12.12.2015 01:10 3,9 C 3,2 C 62 % 1027,7 hPa 0,0 mm 9,1 km/h (2 Bft) W 270 -2,7 C 15,8 km/h (3 Bft)
12.12.2015 01:15 3,9 C 3,2 C 62 % 1027,5 hPa 0,0 mm 8,5 km/h (2 Bft) SW 225 -2,7 C 10,4 km/h (2 Bft)
12.12.2015 01:20 3,8 C 3,1 C 62 % 1027,5 hPa 0,0 mm 8,5 km/h (2 Bft) SW 225 -2,8 C 13,5 km/h (3 Bft)
12.12.2015 01:25 3,8 C 3,1 C 62 % 1027,5 hPa 0,0 mm 9,1 km/h (2 Bft) W-SW 247 -2,8 C 12,7 km/h (3 Bft)
12.12.2015 01:30 3,7 C 3,0 C 62 % 1027,5 hPa 0,0 mm 9,8 km/h (2 Bft) SW 225 -2,9 C 12,9 km/h (3 Bft)
12.12.2015 01:35 3,7 C 2,9 C 62 % 1027,4 hPa 0,0 mm 10,1 km/h (2 Bft) NO 45 -2,9 C 15,5 km/h (3 Bft)
12.12.2015 01:40 3,8 C 3,0 C 62 % 1027,4 hPa 0,0 mm 10,4 km/h (2 Bft) W-SW 247 -2,8 C 6,2 km/h (2 Bft)
12.12.2015 01:45 3,9 C 3,0 C 62 % 1027,4 hPa 0,0 mm 10,9 km/h (2 Bft) S-SW 202 -2,7 C 17,3 km/h (3 Bft)
12.12.2015 01:50 3,8 C 3,0 C 63 % 1027,4 hPa 0,0 mm 9,6 km/h (2 Bft) W 270 -2,6 C 14,2 km/h (3 Bft)
12.12.2015 01:55 3,8 C 3,0 C 63 % 1027,4 hPa 0,0 mm 9,8 km/h (2 Bft) W 270 -2,6 C 15,5 km/h (3 Bft)
12.12.2015 02:00 3,8 C 3,0 C 63 % 1027,4 hPa 0,0 mm 11,4 km/h (2 Bft) S-SW 202 -2,6 C 18,1 km/h (3 Bft)
12.12.2015 02:05 3,9 C 3,2 C 63 % 1027,4 hPa 0,0 mm 12,9 km/h (3 Bft) SW 225 -2,5 C 10,6 km/h (2 Bft)
12.12.2015 02:10 4,0 C 3,3 C 63 % 1027,4 hPa 0,0 mm 13,5 km/h (3 Bft) W 270 -2,4 C 18,4 km/h (3 Bft)
12.12.2015 02:15 4,0 C 3,3 C 63 % 1027,3 hPa 0,0 mm 12,9 km/h (3 Bft) NW 315 -2,4 C 12,2 km/h (2 Bft)
12.12.2015 02:20 3,9 C 3,3 C 64 % 1027,3 hPa 0,0 mm 12,4 km/h (3 Bft) W 270 -2,3 C 15,5 km/h (3 Bft)
12.12.2015 02:25 4,1 C 3,2 C 63 % 1027,3 hPa 0,0 mm 11,4 km/h (2 Bft) W-NW 292 -2,3 C 23,8 km/h (4 Bft)
12.12.2015 02:30 4,1 C 3,2 C 63 % 1027,3 hPa 0,0 mm 12,2 km/h (2 Bft) W-SW 247 -2,3 C 18,9 km/h (3 Bft)
12.12.2015 02:35 4,0 C 3,3 C 63 % 1027,5 hPa 0,0 mm 12,9 km/h (3 Bft) W-SW 247 -2,4 C 18,9 km/h (3 Bft)
12.12.2015 02:40 3,9 C 3,2 C 64 % 1027,5 hPa 0,0 mm 11,1 km/h (2 Bft) W 270 -2,3 C 7,8 km/h (2 Bft)
12.12.2015 02:45 3,9 C 3,2 C 64 % 1027,5 hPa 0,0 mm 10,1 km/h (2 Bft) W-NW 292 -2,3 C 14,5 km/h (3 Bft)
12.12.2015 02:50 4,0 C 3,2 C 64 % 1027,5 hPa 0,0 mm 9,8 km/h (2 Bft) SW 225 -2,2 C 12,2 km/h (2 Bft)
12.12.2015 02:55 4,0 C 3,2 C 64 % 1027,3 hPa 0,0 mm 11,1 km/h (2 Bft) W-SW 247 -2,2 C 10,6 km/h (2 Bft)
12.12.2015 03:00 4,0 C 3,2 C 64 % 1027,3 hPa 0,0 mm 10,9 km/h (2 Bft) W-SW 247 -2,2 C 10,1 km/h (2 Bft)
12.12.2015 03:05 4,0 C 3,3 C 64 % 1027,3 hPa 0,0 mm 10,1 km/h (2 Bft) SW 225 -2,2 C 14,2 km/h (3 Bft)
12.12.2015 03:11 4,1 C 3,4 C 64 % 1027,3 hPa 0,0 mm 9,8 km/h (2 Bft) SW 225 -2,1 C 10,4 km/h (2 Bft)
12.12.2015 03:15 3,9 C 3,3 C 64 % 1027,3 hPa 0,0 mm 9,1 km/h (2 Bft) SW 225 -2,3 C 12,4 km/h (3 Bft)
12.12.2015 03:20 3,9 C 3,3 C 64 % 1027,3 hPa 0,0 mm 8,8 km/h (2 Bft) SW 225 -2,3 C 11,9 km/h (2 Bft)
12.12.2015 03:25 4,1 C 3,3 C 64 % 1027,3 hPa 0,0 mm 10,4 km/h (2 Bft) W-SW 247 -2,1 C 19,4 km/h (3 Bft)
12.12.2015 03:30 4,0 C 3,3 C 64 % 1027,3 hPa 0,0 mm 10,6 km/h (2 Bft) S 180 -2,2 C 15,5 km/h (3 Bft)
12.12.2015 03:35 4,0 C 3,3 C 64 % 1027,3 hPa 0,0 mm 10,1 km/h (2 Bft) W 270 -2,2 C 13,7 km/h (3 Bft)
12.12.2015 03:40 3,9 C 3,3 C 64 % 1027,3 hPa 0,0 mm 9,3 km/h (2 Bft) SW 225 -2,3 C 9,8 km/h (2 Bft)
12.12.2015 03:45 3,9 C 3,3 C 64 % 1027,3 hPa 0,0 mm 8,5 km/h (2 Bft) W 270 -2,3 C 14,0 km/h (3 Bft)
12.12.2015 03:50 3,9 C 3,4 C 65 % 1027,3 hPa 0,0 mm 7,0 km/h (2 Bft) W-SW 247 -2,1 C 4,7 km/h (1 Bft)
12.12.2015 03:55 3,8 C 3,4 C 64 % 1027,3 hPa 0,0 mm 6,5 km/h (2 Bft) SW 225 -2,4 C 16,8 km/h (3 Bft)
12.12.2015 04:00 3,7 C 3,3 C 64 % 1027,3 hPa 0,0 mm 6,2 km/h (2 Bft) W-SW 247 -2,5 C 8,5 km/h (2 Bft)
12.12.2015 04:05 3,7 C 3,3 C 65 % 1027,3 hPa 0,0 mm 6,5 km/h (2 Bft) W-SW 247 -2,3 C 6,7 km/h (2 Bft)
12.12.2015 04:11 3,7 C 3,2 C 65 % 1027,3 hPa 0,0 mm 7,0 km/h (2 Bft) W-SW 247 -2,3 C 9,6 km/h (2 Bft)
12.12.2015 04:15 3,8 C 3,1 C 64 % 1027,5 hPa 0,0 mm 8,5 km/h (2 Bft) W-SW 247 -2,4 C 14,5 km/h (3 Bft)
12.12.2015 04:20 4,0 C 3,2 C 64 % 1027,5 hPa 0,0 mm 10,1 km/h (2 Bft) S 180 -2,2 C 18,1 km/h (3 Bft)
12.12.2015 04:25 3,9 C 3,2 C 64 % 1027,5 hPa 0,0 mm 9,8 km/h (2 Bft) W-SW 247 -2,3 C 6,0 km/h (2 Bft)
12.12.2015 04:30 4,1 C 3,4 C 63 % 1027,5 hPa 0,0 mm 9,8 km/h (2 Bft) NW 315 -2,3 C 12,9 km/h (3 Bft)
12.12.2015 04:36 4,1 C 3,4 C 63 % 1027,6 hPa 0,0 mm 10,1 km/h (2 Bft) W-SW 247 -2,3 C 12,2 km/h (2 Bft)
12.12.2015 04:40 4,1 C 3,4 C 63 % 1027,6 hPa 0,0 mm 10,6 km/h (2 Bft) W-SW 247 -2,3 C 12,4 km/h (3 Bft)
12.12.2015 04:45 4,2 C 3,5 C 63 % 1027,6 hPa 0,0 mm 10,6 km/h (2 Bft) SW 225 -2,2 C 12,9 km/h (3 Bft)
12.12.2015 04:50 4,1 C 3,5 C 63 % 1027,6 hPa 0,0 mm 10,1 km/h (2 Bft) SW 225 -2,3 C 14,5 km/h (3 Bft)
12.12.2015 04:55 4,2 C 3,6 C 63 % 1027,7 hPa 0,0 mm 9,8 km/h (2 Bft) W-SW 247 -2,2 C 13,5 km/h (3 Bft)
12.12.2015 05:00 4,2 C 3,6 C 63 % 1027,7 hPa 0,0 mm 9,6 km/h (2 Bft) W-SW 247 -2,2 C 12,2 km/h (2 Bft)
12.12.2015 05:05 4,3 C 3,7 C 63 % 1027,7 hPa 0,0 mm 9,1 km/h (2 Bft) SW 225 -2,1 C 9,6 km/h (2 Bft)
12.12.2015 05:10 4,3 C 3,8 C 63 % 1027,7 hPa 0,0 mm 8,3 km/h (2 Bft) W-SW 247 -2,1 C 8,5 km/h (2 Bft)
12.12.2015 05:15 4,2 C 3,8 C 63 % 1027,8 hPa 0,0 mm 7,8 km/h (2 Bft) O-NO 67 -2,2 C 9,3 km/h (2 Bft)
12.12.2015 05:20 4,2 C 3,7 C 63 % 1027,8 hPa 0,0 mm 8,3 km/h (2 Bft) W 270 -2,2 C 8,0 km/h (2 Bft)
12.12.2015 05:25 4,2 C 3,7 C 63 % 1027,8 hPa 0,0 mm 9,1 km/h (2 Bft) SW 225 -2,2 C 9,1 km/h (2 Bft)
12.12.2015 05:30 4,3 C 3,7 C 63 % 1027,8 hPa 0,0 mm 9,1 km/h (2 Bft) S 180 -2,1 C 10,1 km/h (2 Bft)
12.12.2015 05:35 4,1 C 3,6 C 63 % 1027,5 hPa 0,0 mm 8,5 km/h (2 Bft) W 270 -2,3 C 4,9 km/h (1 Bft)
12.12.2015 05:40 4,2 C 3,7 C 63 % 1027,5 hPa 0,0 mm 8,0 km/h (2 Bft) W 270 -2,2 C 7,8 km/h (2 Bft)
12.12.2015 05:45 4,3 C 3,7 C 63 % 1027,5 hPa 0,0 mm 8,8 km/h (2 Bft) S 180 -2,1 C 12,4 km/h (3 Bft)
12.12.2015 05:50 4,1 C 3,6 C 63 % 1027,5 hPa 0,0 mm 8,8 km/h (2 Bft) W-SW 247 -2,3 C 11,1 km/h (2 Bft)
12.12.2015 05:55 4,2 C 3,7 C 63 % 1027,4 hPa 0,0 mm 8,3 km/h (2 Bft) W-SW 247 -2,2 C 7,0 km/h (2 Bft)
12.12.2015 06:00 4,0 C 3,6 C 63 % 1027,4 hPa 0,0 mm 7,0 km/h (2 Bft) W 270 -2,4 C 6,2 km/h (2 Bft)
12.12.2015 06:05 3,9 C 3,6 C 63 % 1027,4 hPa 0,0 mm 6,2 km/h (2 Bft) SW 225 -2,5 C 8,8 km/h (2 Bft)
12.12.2015 06:10 3,9 C 3,5 C 63 % 1027,4 hPa 0,0 mm 7,0 km/h (2 Bft) W-SW 247 -2,5 C 15,0 km/h (3 Bft)
12.12.2015 06:15 4,0 C 3,5 C 63 % 1027,3 hPa 0,0 mm 8,3 km/h (2 Bft) W-SW 247 -2,4 C 17,9 km/h (3 Bft)
12.12.2015 06:20 4,0 C 3,4 C 63 % 1027,3 hPa 0,0 mm 8,8 km/h (2 Bft) SW 225 -2,4 C 7,8 km/h (2 Bft)
12.12.2015 06:25 4,1 C 3,5 C 63 % 1027,3 hPa 0,0 mm 9,1 km/h (2 Bft) W 270 -2,3 C 11,1 km/h (2 Bft)
12.12.2015 06:30 3,9 C 3,3 C 63 % 1027,3 hPa 0,0 mm 8,5 km/h (2 Bft) W 270 -2,5 C 16,3 km/h (3 Bft)
12.12.2015 06:35 4,0 C 3,4 C 63 % 1027,4 hPa 0,0 mm 8,5 km/h (2 Bft) W-SW 247 -2,4 C 8,3 km/h (2 Bft)
12.12.2015 06:40 4,0 C 3,3 C 63 % 1027,4 hPa 0,0 mm 9,8 km/h (2 Bft) W-NW 292 -2,4 C 10,6 km/h (2 Bft)
12.12.2015 06:45 4,0 C 3,4 C 63 % 1027,4 hPa 0,0 mm 9,6 km/h (2 Bft) SW 225 -2,4 C 19,2 km/h (3 Bft)
12.12.2015 06:51 4,0 C 3,3 C 63 % 1027,4 hPa 0,0 mm 9,6 km/h (2 Bft) SW 225 -2,4 C 27,7 km/h (4 Bft)
12.12.2015 06:55 3,9 C 3,3 C 62 % 1027,4 hPa 0,0 mm 9,1 km/h (2 Bft) W 270 -2,7 C 12,7 km/h (3 Bft)
12.12.2015 07:00 3,9 C 3,3 C 62 % 1027,4 hPa 0,0 mm 8,5 km/h (2 Bft) SW 225 -2,7 C 9,8 km/h (2 Bft)
12.12.2015 07:05 4,0 C 3,4 C 62 % 1027,4 hPa 0,0 mm 8,8 km/h (2 Bft) SW 225 -2,6 C 11,4 km/h (2 Bft)
12.12.2015 07:10 4,2 C 3,5 C 62 % 1027,4 hPa 0,0 mm 10,4 km/h (2 Bft) S 180 -2,4 C 10,9 km/h (2 Bft)
12.12.2015 07:15 4,1 C 3,5 C 62 % 1027,1 hPa 0,0 mm 9,6 km/h (2 Bft) NW 315 -2,5 C 8,5 km/h (2 Bft)
12.12.2015 07:20 4,0 C 3,6 C 61 % 1027,1 hPa 0,0 mm 7,3 km/h (2 Bft) S-SW 202 -2,8 C 9,1 km/h (2 Bft)
12.12.2015 07:25 4,0 C 3,6 C 61 % 1027,1 hPa 0,0 mm 6,5 km/h (2 Bft) W-SW 247 -2,8 C 7,8 km/h (2 Bft)
12.12.2015 07:30 3,9 C 3,6 C 61 % 1027,1 hPa 0,0 mm 5,7 km/h (1 Bft) W-SW 247 -2,9 C 10,9 km/h (2 Bft)
12.12.2015 07:35 3,9 C 3,7 C 60 % 1026,9 hPa 0,0 mm 4,9 km/h (1 Bft) W-SW 247 -3,1 C 7,8 km/h (2 Bft)
12.12.2015 07:40 3,4 C 3,3 C 61 % 1026,9 hPa 0,0 mm 2,6 km/h (1 Bft) N-NW 337 -3,4 C 0,0 km/h (0 Bft)
12.12.2015 07:45 3,4 C 3,2 C 61 % 1026,9 hPa 0,0 mm 1,0 km/h (0 Bft) N-NW 337 -3,4 C 0,0 km/h (0 Bft)
12.12.2015 07:50 2,9 C 2,8 C 63 % 1026,9 hPa 0,0 mm 0,0 km/h (0 Bft) O-NO 67 -3,4 C 0,0 km/h (0 Bft)
12.12.2015 07:55 3,0 C 2,8 C 63 % 1027,3 hPa 0,0 mm 0,0 km/h (0 Bft) SO 135 -3,3 C 0,0 km/h (0 Bft)
12.12.2015 08:00 3,2 C 2,8 C 63 % 1027,3 hPa 0,0 mm 0,0 km/h (0 Bft) SO 135 -3,1 C 0,0 km/h (0 Bft)
12.12.2015 08:06 3,0 C 2,7 C 63 % 1027,3 hPa 0,0 mm 0,0 km/h (0 Bft) SO 135 -3,3 C 0,0 km/h (0 Bft)
12.12.2015 08:10 3,0 C 2,6 C 63 % 1027,3 hPa 0,0 mm 0,0 km/h (0 Bft) O-SO 112 -3,3 C 0,0 km/h (0 Bft)
12.12.2015 08:15 3,0 C 2,7 C 63 % 1027,2 hPa 0,0 mm 0,0 km/h (0 Bft) SO 135 -3,3 C 2,6 km/h (1 Bft)
12.12.2015 08:20 3,0 C 2,7 C 64 % 1027,2 hPa 0,0 mm 1,3 km/h (1 Bft) SO 135 -3,1 C 0,0 km/h (0 Bft)
12.12.2015 08:25 3,0 C 2,7 C 64 % 1027,2 hPa 0,0 mm 1,3 km/h (1 Bft) SO 135 -3,1 C 0,0 km/h (0 Bft)
12.12.2015 08:30 3,0 C 2,8 C 64 % 1027,2 hPa 0,0 mm 0,8 km/h (0 Bft) S 180 -3,1 C 0,0 km/h (0 Bft)
12.12.2015 08:35 2,8 C 2,8 C 66 % 1027,3 hPa 0,0 mm 1,6 km/h (1 Bft) W-SW 247 -2,9 C 0,0 km/h (0 Bft)
12.12.2015 08:40 2,3 C 2,6 C 66 % 1027,3 hPa 0,0 mm 0,8 km/h (0 Bft) W-SW 247 -3,4 C 0,0 km/h (0 Bft)
12.12.2015 08:45 2,4 C 2,4 C 66 % 1027,3 hPa 0,0 mm 0,5 km/h (0 Bft) W-SW 247 -3,3 C 2,8 km/h (1 Bft)
12.12.2015 08:50 3,2 C 3,2 C 66 % 1027,3 hPa 0,0 mm 3,6 km/h (1 Bft) S-SW 202 -2,5 C 10,1 km/h (2 Bft)
12.12.2015 08:55 3,7 C 3,2 C 64 % 1027,1 hPa 0,0 mm 7,8 km/h (2 Bft) W-SW 247 -2,5 C 10,9 km/h (2 Bft)
12.12.2015 09:00 3,8 C 3,4 C 63 % 1027,1 hPa 0,0 mm 7,8 km/h (2 Bft) W 270 -2,6 C 2,6 km/h (1 Bft)
12.12.2015 09:05 3,7 C 3,5 C 62 % 1027,1 hPa 0,0 mm 6,0 km/h (2 Bft) SW 225 -2,9 C 7,8 km/h (2 Bft)
12.12.2015 09:10 3,6 C 3,8 C 62 % 1027,1 hPa 0,0 mm 4,1 km/h (1 Bft) W 270 -3,0 C 7,3 km/h (2 Bft)
12.12.2015 09:15 3,7 C 3,9 C 62 % 1027,3 hPa 0,0 mm 3,6 km/h (1 Bft) W-NW 292 -2,9 C 4,1 km/h (1 Bft)
12.12.2015 09:20 3,8 C 4,2 C 62 % 1027,3 hPa 0,0 mm 3,1 km/h (1 Bft) SW 225 -2,8 C 0,0 km/h (0 Bft)
12.12.2015 09:25 3,9 C 4,2 C 62 % 1027,3 hPa 0,0 mm 2,1 km/h (1 Bft) W 270 -2,7 C 7,8 km/h (2 Bft)
12.12.2015 09:30 4,2 C 4,5 C 61 % 1027,3 hPa 0,0 mm 1,8 km/h (1 Bft) W-SW 247 -2,6 C 0,0 km/h (0 Bft)
12.12.2015 09:35 4,3 C 4,8 C 61 % 1027,6 hPa 0,0 mm 2,6 km/h (1 Bft) W-SW 247 -2,5 C 3,6 km/h (1 Bft)
12.12.2015 09:40 4,7 C 5,0 C 60 % 1027,6 hPa 0,0 mm 5,2 km/h (1 Bft) S 180 -2,4 C 10,1 km/h (2 Bft)
12.12.2015 09:45 4,9 C 4,8 C 59 % 1027,6 hPa 0,0 mm 7,5 km/h (2 Bft) W-SW 247 -2,4 C 10,9 km/h (2 Bft)
12.12.2015 09:50 5,0 C 4,8 C 59 % 1027,6 hPa 0,0 mm 9,8 km/h (2 Bft) W-NW 292 -2,3 C 12,2 km/h (2 Bft)
12.12.2015 09:55 5,1 C 5,0 C 59 % 1027,7 hPa 0,0 mm 9,1 km/h (2 Bft) SW 225 -2,2 C 8,5 km/h (2 Bft)
12.12.2015 10:00 5,2 C 5,2 C 59 % 1027,7 hPa 0,0 mm 7,0 km/h (2 Bft) O 90 -2,1 C 7,0 km/h (2 Bft)
12.12.2015 10:05 5,2 C 5,3 C 59 % 1027,7 hPa 0,0 mm 7,3 km/h (2 Bft) W 270 -2,1 C 7,5 km/h (2 Bft)
12.12.2015 10:10 5,0 C 5,2 C 59 % 1027,7 hPa 0,0 mm 7,0 km/h (2 Bft) W-SW 247 -2,3 C 6,7 km/h (2 Bft)
12.12.2015 10:15 5,0 C 5,3 C 59 % 1027,2 hPa 0,0 mm 6,5 km/h (2 Bft) NW 315 -2,3 C 9,8 km/h (2 Bft)
12.12.2015 10:20 5,0 C 5,4 C 59 % 1027,2 hPa 0,0 mm 6,2 km/h (2 Bft) W 270 -2,3 C 7,8 km/h (2 Bft)
12.12.2015 10:25 5,0 C 5,6 C 59 % 1027,2 hPa 0,0 mm 5,4 km/h (1 Bft) W-SW 247 -2,3 C 7,8 km/h (2 Bft)
12.12.2015 10:30 5,1 C 5,3 C 59 % 1027,2 hPa 0,0 mm 6,5 km/h (2 Bft) NW 315 -2,2 C 9,3 km/h (2 Bft)
12.12.2015 10:35 5,2 C 5,1 C 59 % 1027,8 hPa 0,0 mm 7,8 km/h (2 Bft) W 270 -2,1 C 10,1 km/h (2 Bft)
12.12.2015 10:40 5,1 C 5,0 C 59 % 1027,8 hPa 0,0 mm 7,8 km/h (2 Bft) W 270 -2,2 C 6,7 km/h (2 Bft)
12.12.2015 10:45 5,2 C 5,1 C 59 % 1027,8 hPa 0,0 mm 8,3 km/h (2 Bft) W-SW 247 -2,1 C 6,0 km/h (2 Bft)
12.12.2015 10:50 5,2 C 5,0 C 59 % 1027,8 hPa 0,0 mm 8,8 km/h (2 Bft) SW 225 -2,1 C 9,3 km/h (2 Bft)
12.12.2015 10:55 5,1 C 5,0 C 59 % 1027,7 hPa 0,0 mm 7,3 km/h (2 Bft) W-NW 292 -2,2 C 5,4 km/h (1 Bft)
12.12.2015 11:00 5,2 C 5,2 C 59 % 1027,7 hPa 0,0 mm 6,7 km/h (2 Bft) SW 225 -2,1 C 7,8 km/h (2 Bft)
12.12.2015 11:05 5,2 C 5,1 C 59 % 1027,7 hPa 0,0 mm 6,7 km/h (2 Bft) W-SW 247 -2,1 C 7,8 km/h (2 Bft)
12.12.2015 11:10 5,2 C 5,1 C 59 % 1027,7 hPa 0,0 mm 6,7 km/h (2 Bft) W 270 -2,1 C 8,0 km/h (2 Bft)
12.12.2015 11:15 5,2 C 5,1 C 59 % 1027,6 hPa 0,0 mm 7,0 km/h (2 Bft) W-SW 247 -2,1 C 8,0 km/h (2 Bft)
12.12.2015 11:20 5,0 C 5,6 C 59 % 1027,6 hPa 0,0 mm 4,4 km/h (1 Bft) W-SW 247 -2,3 C 2,8 km/h (1 Bft)
12.12.2015 11:25 5,2 C 5,6 C 59 % 1027,6 hPa 0,0 mm 4,1 km/h (1 Bft) NW 315 -2,1 C 9,8 km/h (2 Bft)
12.12.2015 11:30 5,4 C 5,4 C 59 % 1027,6 hPa 0,0 mm 6,2 km/h (2 Bft) W-SW 247 -2,0 C 16,3 km/h (3 Bft)
12.12.2015 11:35 5,5 C 5,4 C 59 % 1027,5 hPa 0,0 mm 7,5 km/h (2 Bft) W-NW 292 -1,9 C 12,9 km/h (3 Bft)
12.12.2015 11:40 5,4 C 5,4 C 59 % 1027,5 hPa 0,0 mm 7,3 km/h (2 Bft) SW 225 -2,0 C 7,3 km/h (2 Bft)
12.12.2015 11:45 5,5 C 5,6 C 59 % 1027,5 hPa 0,0 mm 6,7 km/h (2 Bft) S 180 -1,9 C 11,9 km/h (2 Bft)
12.12.2015 11:50 5,5 C 5,5 C 59 % 1027,5 hPa 0,0 mm 7,0 km/h (2 Bft) SW 225 -1,9 C 4,7 km/h (1 Bft)
12.12.2015 11:55 5,5 C 5,5 C 59 % 1027,2 hPa 0,0 mm 7,0 km/h (2 Bft) NW 315 -1,9 C 7,3 km/h (2 Bft)
12.12.2015 12:00 5,4 C 5,8 C 59 % 1027,2 hPa 0,0 mm 6,0 km/h (2 Bft) W-NW 292 -2,0 C 5,4 km/h (1 Bft)
12.12.2015 12:05 5,6 C 5,5 C 59 % 1027,2 hPa 0,0 mm 7,0 km/h (2 Bft) W-SW 247 -1,8 C 12,4 km/h (3 Bft)
12.12.2015 12:10 5,7 C 5,4 C 59 % 1027,2 hPa 0,0 mm 9,6 km/h (2 Bft) W-SW 247 -1,7 C 10,1 km/h (2 Bft)
12.12.2015 12:15 5,6 C 5,4 C 59 % 1027,2 hPa 0,0 mm 9,3 km/h (2 Bft) W-SW 247 -1,8 C 7,8 km/h (2 Bft)
12.12.2015 12:21 5,6 C 5,5 C 59 % 1027,2 hPa 0,0 mm 7,0 km/h (2 Bft) SW 225 -1,8 C 6,2 km/h (2 Bft)
12.12.2015 12:25 5,7 C 5,8 C 59 % 1027,2 hPa 0,0 mm 6,2 km/h (2 Bft) NW 315 -1,7 C 3,9 km/h (1 Bft)
12.12.2015 12:30 6,0 C 6,0 C 59 % 1027,2 hPa 0,0 mm 6,2 km/h (2 Bft) W-SW 247 -1,4 C 17,9 km/h (3 Bft)
12.12.2015 12:36 6,1 C 6,0 C 59 % 1027,2 hPa 0,0 mm 8,5 km/h (2 Bft) NW 315 -1,3 C 8,5 km/h (2 Bft)
12.12.2015 12:40 6,0 C 5,8 C 59 % 1027,2 hPa 0,0 mm 9,8 km/h (2 Bft) W 270 -1,4 C 6,5 km/h (2 Bft)
12.12.2015 12:45 5,7 C 6,1 C 59 % 1027,2 hPa 0,0 mm 6,5 km/h (2 Bft) W 270 -1,7 C 0,0 km/h (0 Bft)
12.12.2015 12:50 5,7 C 6,2 C 59 % 1027,2 hPa 0,0 mm 5,2 km/h (1 Bft) NW 315 -1,7 C 7,8 km/h (2 Bft)
12.12.2015 12:55 5,8 C 5,8 C 59 % 1026,7 hPa 0,0 mm 7,0 km/h (2 Bft) W 270 -1,6 C 12,7 km/h (3 Bft)
12.12.2015 13:00 5,9 C 5,7 C 59 % 1026,7 hPa 0,0 mm 9,3 km/h (2 Bft) W-NW 292 -1,5 C 11,1 km/h (2 Bft)
12.12.2015 13:05 5,8 C 5,6 C 59 % 1026,7 hPa 0,0 mm 8,3 km/h (2 Bft) W-SW 247 -1,6 C 8,3 km/h (2 Bft)
12.12.2015 13:10 5,8 C 5,6 C 59 % 1026,7 hPa 0,0 mm 7,8 km/h (2 Bft) W-SW 247 -1,6 C 7,3 km/h (2 Bft)
12.12.2015 13:15 5,8 C 5,6 C 59 % 1026,8 hPa 0,0 mm 7,8 km/h (2 Bft) W 270 -1,6 C 10,4 km/h (2 Bft)
12.12.2015 13:20 5,7 C 5,6 C 59 % 1026,8 hPa 0,0 mm 7,0 km/h (2 Bft) W-NW 292 -1,7 C 7,8 km/h (2 Bft)
12.12.2015 13:25 5,6 C 5,6 C 59 % 1026,8 hPa 0,0 mm 6,5 km/h (2 Bft) W 270 -1,8 C 7,0 km/h (2 Bft)
12.12.2015 13:30 5,4 C 5,7 C 59 % 1026,8 hPa 0,0 mm 5,7 km/h (1 Bft) W 270 -2,0 C 2,8 km/h (1 Bft)
12.12.2015 13:35 5,3 C 5,8 C 60 % 1026,7 hPa 0,0 mm 4,4 km/h (1 Bft) NW 315 -1,8 C 6,0 km/h (2 Bft)
12.12.2015 13:40 5,3 C 6,0 C 60 % 1026,7 hPa 0,0 mm 2,8 km/h (1 Bft) O-SO 112 -1,8 C 4,1 km/h (1 Bft)
12.12.2015 13:45 5,6 C 6,6 C 60 % 1026,7 hPa 0,0 mm 3,6 km/h (1 Bft) W-SW 247 -1,5 C 4,1 km/h (1 Bft)
12.12.2015 13:50 5,9 C 7,6 C 59 % 1026,7 hPa 0,0 mm 4,7 km/h (1 Bft) W 270 -1,5 C 7,0 km/h (2 Bft)
12.12.2015 13:55 6,0 C 8,2 C 59 % 1026,6 hPa 0,0 mm 4,7 km/h (1 Bft) SW 225 -1,4 C 8,3 km/h (2 Bft)
12.12.2015 14:00 5,8 C 8,3 C 59 % 1026,6 hPa 0,0 mm 4,1 km/h (1 Bft) W-SW 247 -1,6 C 6,0 km/h (2 Bft)
12.12.2015 14:05 5,6 C 8,1 C 59 % 1026,6 hPa 0,0 mm 4,4 km/h (1 Bft) W 270 -1,8 C 5,7 km/h (1 Bft)
12.12.2015 14:10 5,4 C 8,3 C 59 % 1026,6 hPa 0,0 mm 4,7 km/h (1 Bft) W 270 -2,0 C 7,3 km/h (2 Bft)
12.12.2015 14:15 5,4 C 7,7 C 59 % 1026,7 hPa 0,0 mm 4,9 km/h (1 Bft) W-SW 247 -2,0 C 6,2 km/h (2 Bft)
12.12.2015 14:20 5,2 C 6,8 C 59 % 1026,7 hPa 0,0 mm 4,1 km/h (1 Bft) W-SW 247 -2,1 C 3,9 km/h (1 Bft)
12.12.2015 14:25 5,2 C 6,5 C 60 % 1026,7 hPa 0,0 mm 3,1 km/h (1 Bft) SW 225 -1,9 C 3,9 km/h (1 Bft)
12.12.2015 14:30 5,4 C 6,0 C 60 % 1026,7 hPa 0,0 mm 4,1 km/h (1 Bft) S-SW 202 -1,7 C 6,2 km/h (2 Bft)
12.12.2015 14:35 5,3 C 5,6 C 60 % 1026,5 hPa 0,0 mm 5,7 km/h (1 Bft) SW 225 -1,8 C 7,3 km/h (2 Bft)
12.12.2015 14:40 5,2 C 5,2 C 59 % 1026,5 hPa 0,0 mm 6,5 km/h (2 Bft) W-SW 247 -2,1 C 7,3 km/h (2 Bft)
12.12.2015 14:45 5,1 C 5,3 C 60 % 1026,5 hPa 0,0 mm 5,7 km/h (1 Bft) W-SW 247 -2,0 C 4,4 km/h (1 Bft)
12.12.2015 14:50 4,9 C 5,3 C 61 % 1026,5 hPa 0,0 mm 3,1 km/h (1 Bft) S-SW 202 -2,0 C 0,0 km/h (0 Bft)
12.12.2015 14:55 4,9 C 5,2 C 61 % 1026,5 hPa 0,0 mm 2,1 km/h (1 Bft) S 180 -2,0 C 0,0 km/h (0 Bft)
12.12.2015 15:00 4,8 C 5,1 C 62 % 1026,5 hPa 0,0 mm 2,3 km/h (1 Bft) SW 225 -1,9 C 3,6 km/h (1 Bft)
12.12.2015 15:05 4,7 C 5,1 C 63 % 1026,5 hPa 0,0 mm 1,8 km/h (1 Bft) O-SO 112 -1,7 C 0,0 km/h (0 Bft)
12.12.2015 15:10 4,6 C 4,7 C 63 % 1026,5 hPa 0,0 mm 0,5 km/h (0 Bft) O-SO 112 -1,8 C 0,0 km/h (0 Bft)
12.12.2015 15:15 4,4 C 4,5 C 63 % 1026,4 hPa 0,0 mm 0,8 km/h (0 Bft) S-SW 202 -2,0 C 2,8 km/h (1 Bft)
12.12.2015 15:20 4,1 C 4,3 C 63 % 1026,4 hPa 0,0 mm 2,8 km/h (1 Bft) SW 225 -2,3 C 4,1 km/h (1 Bft)
12.12.2015 15:26 4,1 C 4,2 C 64 % 1026,4 hPa 0,0 mm 3,1 km/h (1 Bft) SW 225 -2,1 C 0,0 km/h (0 Bft)
12.12.2015 15:30 4,1 C 4,1 C 64 % 1026,4 hPa 0,0 mm 1,3 km/h (1 Bft) S-SW 202 -2,1 C 0,0 km/h (0 Bft)
12.12.2015 15:35 4,1 C 4,0 C 64 % 1026,3 hPa 0,0 mm 0,3 km/h (0 Bft) S 180 -2,1 C 0,0 km/h (0 Bft)
12.12.2015 15:40 3,9 C 3,9 C 65 % 1026,3 hPa 0,0 mm 0,3 km/h (0 Bft) S 180 -2,1 C 0,0 km/h (0 Bft)
12.12.2015 15:45 4,0 C 3,9 C 65 % 1026,3 hPa 0,0 mm 0,0 km/h (0 Bft) S 180 -2,0 C 0,0 km/h (0 Bft)
12.12.2015 15:50 4,0 C 3,8 C 66 % 1026,3 hPa 0,0 mm 0,0 km/h (0 Bft) S 180 -1,8 C 0,0 km/h (0 Bft)
12.12.2015 15:55 4,1 C 3,9 C 65 % 1026,2 hPa 0,0 mm 0,0 km/h (0 Bft) S 180 -1,9 C 0,0 km/h (0 Bft)
12.12.2015 16:00 3,8 C 3,7 C 66 % 1026,2 hPa 0,0 mm 0,0 km/h (0 Bft) S 180 -2,0 C 0,0 km/h (0 Bft)
12.12.2015 16:05 3,9 C 3,7 C 66 % 1026,2 hPa 0,0 mm 1,0 km/h (0 Bft) W-SW 247 -1,9 C 6,2 km/h (2 Bft)
12.12.2015 16:11 3,8 C 3,7 C 66 % 1026,2 hPa 0,0 mm 1,3 km/h (1 Bft) S 180 -2,0 C 0,0 km/h (0 Bft)
12.12.2015 16:15 3,8 C 3,7 C 66 % 1026,3 hPa 0,0 mm 1,0 km/h (0 Bft) N-NO 22 -2,0 C 5,4 km/h (1 Bft)
12.12.2015 16:20 3,9 C 3,8 C 65 % 1026,3 hPa 0,0 mm 2,3 km/h (1 Bft) S-SW 202 -2,1 C 2,8 km/h (1 Bft)
12.12.2015 16:25 3,7 C 3,7 C 66 % 1026,3 hPa 0,0 mm 1,8 km/h (1 Bft) S 180 -2,0 C 0,0 km/h (0 Bft)
12.12.2015 16:30 3,1 C 3,2 C 66 % 1026,3 hPa 0,0 mm 1,3 km/h (1 Bft) S 180 -2,6 C 0,0 km/h (0 Bft)
12.12.2015 16:35 3,0 C 2,9 C 67 % 1026,0 hPa 0,0 mm 1,0 km/h (0 Bft) S 180 -2,5 C 0,0 km/h (0 Bft)
12.12.2015 16:40 2,9 C 2,7 C 68 % 1026,0 hPa 0,0 mm 0,3 km/h (0 Bft) S 180 -2,4 C 0,0 km/h (0 Bft)
12.12.2015 16:45 2,8 C 2,5 C 68 % 1026,0 hPa 0,0 mm 0,0 km/h (0 Bft) S 180 -2,5 C 0,0 km/h (0 Bft)
12.12.2015 16:50 2,5 C 2,1 C 68 % 1026,0 hPa 0,0 mm 0,0 km/h (0 Bft) S 180 -2,8 C 0,0 km/h (0 Bft)
12.12.2015 16:55 1,8 C 1,5 C 68 % 1025,8 hPa 0,0 mm 0,0 km/h (0 Bft) S 180 -3,5 C 0,0 km/h (0 Bft)
12.12.2015 17:00 1,9 C 1,4 C 70 % 1025,8 hPa 0,0 mm 0,0 km/h (0 Bft) S 180 -3,0 C 0,0 km/h (0 Bft)
12.12.2015 17:05 2,0 C 1,4 C 70 % 1025,8 hPa 0,0 mm 0,0 km/h (0 Bft) S 180 -2,9 C 0,0 km/h (0 Bft)
12.12.2015 17:10 1,7 C 1,1 C 70 % 1025,8 hPa 0,0 mm 0,0 km/h (0 Bft) S 180 -3,2 C 0,0 km/h (0 Bft)
12.12.2015 17:15 1,3 C 0,8 C 70 % 1025,7 hPa 0,0 mm 0,0 km/h (0 Bft) S 180 -3,6 C 0,0 km/h (0 Bft)
12.12.2015 17:20 0,7 C 0,3 C 70 % 1025,7 hPa 0,0 mm 0,0 km/h (0 Bft) W-SW 247 -4,1 C 0,0 km/h (0 Bft)
12.12.2015 17:25 0,7 C 0,2 C 72 % 1025,7 hPa 0,0 mm 0,0 km/h (0 Bft) W-SW 247 -3,8 C 0,0 km/h (0 Bft)
12.12.2015 17:30 0,8 C 0,2 C 73 % 1025,7 hPa 0,0 mm 0,0 km/h (0 Bft) SO 135 -3,5 C 0,0 km/h (0 Bft)
12.12.2015 17:35 1,0 C 0,3 C 74 % 1025,7 hPa 0,0 mm 0,0 km/h (0 Bft) S-SO 157 -3,1 C 0,0 km/h (0 Bft)
12.12.2015 17:40 0,6 C 0,0 C 73 % 1025,7 hPa 0,0 mm 0,8 km/h (0 Bft) SW 225 -3,7 C 4,4 km/h (1 Bft)
12.12.2015 17:45 0,8 C 0,3 C 74 % 1025,7 hPa 0,0 mm 2,1 km/h (1 Bft) SW 225 -3,3 C 4,7 km/h (1 Bft)
12.12.2015 17:50 0,3 C 0,0 C 73 % 1025,7 hPa 0,0 mm 1,6 km/h (1 Bft) W 270 -4,0 C 0,0 km/h (0 Bft)
12.12.2015 17:55 0,0 C -0,3 C 73 % 1025,8 hPa 0,0 mm 0,5 km/h (0 Bft) W 270 -4,2 C 0,0 km/h (0 Bft)
12.12.2015 18:00 -0,4 C -0,8 C 74 % 1025,8 hPa 0,0 mm 0,0 km/h (0 Bft) W 270 -4,5 C 0,0 km/h (0 Bft)
12.12.2015 18:05 -0,8 C -1,1 C 74 % 1025,8 hPa 0,0 mm 0,0 km/h (0 Bft) W 270 -4,8 C 0,0 km/h (0 Bft)
12.12.2015 18:10 0,1 C -0,6 C 76 % 1025,8 hPa 0,0 mm 0,0 km/h (0 Bft) S 180 -3,6 C 0,0 km/h (0 Bft)
12.12.2015 18:15 0,4 C -0,3 C 74 % 1025,7 hPa 0,0 mm 0,0 km/h (0 Bft) S 180 -3,7 C 0,0 km/h (0 Bft)
12.12.2015 18:20 0,6 C -0,1 C 76 % 1025,7 hPa 0,0 mm 0,0 km/h (0 Bft) SO 135 -3,1 C 0,0 km/h (0 Bft)
12.12.2015 18:22 0,6 C -0,1 C 76 % 1025,7 hPa 0,0 mm 0,0 km/h (0 Bft) SO 135 -3,1 C 0,0 km/h (0 Bft)
12.12.2015 18:25 0,6 C -0,1 C 76 % 1025,7 hPa 0,0 mm 0,0 km/h (0 Bft) SO 135 -3,1 C 0,0 km/h (0 Bft)
12.12.2015 18:30 0,4 C -0,3 C 76 % 1025,7 hPa 0,0 mm 0,0 km/h (0 Bft) O-SO 112 -3,3 C 0,0 km/h (0 Bft)
12.12.2015 18:35 -0,3 C -0,8 C 75 % 1025,4 hPa 0,0 mm 0,0 km/h (0 Bft) O-SO 112 -4,2 C 0,0 km/h (0 Bft)
12.12.2015 18:40 -0,4 C -1,0 C 76 % 1025,4 hPa 0,0 mm 0,0 km/h (0 Bft) O-SO 112 -4,1 C 0,0 km/h (0 Bft)
12.12.2015 18:45 -0,6 C -1,2 C 76 % 1025,4 hPa 0,0 mm 0,0 km/h (0 Bft) O-SO 112 -4,3 C 0,0 km/h (0 Bft)
12.12.2015 18:50 -0,4 C -1,2 C 76 % 1025,4 hPa 0,0 mm 0,0 km/h (0 Bft) O-SO 112 -4,1 C 0,0 km/h (0 Bft)
12.12.2015 18:55 -0,5 C -1,2 C 77 % 1025,3 hPa 0,0 mm 0,0 km/h (0 Bft) O-SO 112 -4,0 C 0,0 km/h (0 Bft)
12.12.2015 19:00 -1,2 C -1,7 C 76 % 1025,3 hPa 0,0 mm 0,0 km/h (0 Bft) O-SO 112 -4,9 C 0,0 km/h (0 Bft)
12.12.2015 19:05 -1,3 C -1,9 C 76 % 1025,3 hPa 0,0 mm 0,3 km/h (0 Bft) O-NO 67 -5,0 C 3,1 km/h (1 Bft)
12.12.2015 19:10 -1,6 C -2,1 C 76 % 1025,3 hPa 0,0 mm 0,3 km/h (0 Bft) O-SO 112 -5,3 C 0,0 km/h (0 Bft)
12.12.2015 19:15 -1,6 C -2,1 C 77 % 1025,3 hPa 0,0 mm 0,3 km/h (0 Bft) O-NO 67 -5,1 C 0,0 km/h (0 Bft)
12.12.2015 19:20 -1,7 C -2,2 C 77 % 1025,3 hPa 0,0 mm 0,0 km/h (0 Bft) N-NO 22 -5,2 C 0,0 km/h (0 Bft)
12.12.2015 19:25 -1,5 C -2,1 C 77 % 1025,3 hPa 0,0 mm 0,0 km/h (0 Bft) NW 315 -5,0 C 0,0 km/h (0 Bft)
12.12.2015 19:30 -1,5 C -2,2 C 77 % 1025,3 hPa 0,0 mm 0,0 km/h (0 Bft) N-NO 22 -5,0 C 0,0 km/h (0 Bft)
12.12.2015 19:35 -2,0 C -2,5 C 77 % 1025,0 hPa 0,0 mm 0,0 km/h (0 Bft) N-NW 337 -5,5 C 0,0 km/h (0 Bft)
12.12.2015 19:40 -2,0 C -2,6 C 77 % 1025,0 hPa 0,0 mm 0,0 km/h (0 Bft) N-NO 22 -5,5 C 0,0 km/h (0 Bft)
12.12.2015 19:45 -2,4 C -2,9 C 77 % 1025,0 hPa 0,0 mm 0,0 km/h (0 Bft) N-NO 22 -5,9 C 0,0 km/h (0 Bft)
12.12.2015 19:50 -2,4 C -2,9 C 78 % 1025,0 hPa 0,0 mm 0,0 km/h (0 Bft) N-NO 22 -5,7 C 0,0 km/h (0 Bft)
12.12.2015 19:55 -2,5 C -3,0 C 78 % 1025,0 hPa 0,0 mm 0,0 km/h (0 Bft) N-NO 22 -5,8 C 0,0 km/h (0 Bft)
12.12.2015 20:00 -2,4 C -2,9 C 78 % 1025,0 hPa 0,0 mm 0,3 km/h (0 Bft) SW 225 -5,7 C 0,0 km/h (0 Bft)
12.12.2015 20:05 -1,9 C -2,6 C 79 % 1025,0 hPa 0,0 mm 0,3 km/h (0 Bft) S-SO 157 -5,0 C 0,0 km/h (0 Bft)
12.12.2015 20:10 -1,9 C -2,5 C 79 % 1025,0 hPa 0,0 mm 0,0 km/h (0 Bft) O-SO 112 -5,0 C 0,0 km/h (0 Bft)
12.12.2015 20:15 -2,0 C -2,6 C 79 % 1024,8 hPa 0,0 mm 0,0 km/h (0 Bft) SO 135 -5,1 C 0,0 km/h (0 Bft)
12.12.2015 20:20 -1,7 C -2,5 C 80 % 1024,8 hPa 0,0 mm 0,0 km/h (0 Bft) S-SO 157 -4,7 C 2,8 km/h (1 Bft)
12.12.2015 20:25 -1,6 C -2,3 C 80 % 1024,8 hPa 0,0 mm 0,0 km/h (0 Bft) SO 135 -4,6 C 0,0 km/h (0 Bft)
12.12.2015 20:30 -1,9 C -2,6 C 80 % 1024,8 hPa 0,0 mm 0,0 km/h (0 Bft) SO 135 -4,9 C 0,0 km/h (0 Bft)
12.12.2015 20:35 -2,3 C -2,9 C 79 % 1024,7 hPa 0,0 mm 0,0 km/h (0 Bft) SO 135 -5,4 C 0,0 km/h (0 Bft)
12.12.2015 20:40 -2,0 C -2,7 C 80 % 1024,7 hPa 0,0 mm 0,0 km/h (0 Bft) SO 135 -5,0 C 0,0 km/h (0 Bft)
12.12.2015 20:45 -1,7 C -2,5 C 81 % 1024,7 hPa 0,0 mm 0,0 km/h (0 Bft) S-SO 157 -4,5 C 0,0 km/h (0 Bft)
12.12.2015 20:50 -1,9 C -2,6 C 80 % 1024,7 hPa 0,0 mm 0,0 km/h (0 Bft) SO 135 -4,9 C 0,0 km/h (0 Bft)
12.12.2015 20:55 -2,2 C -2,8 C 79 % 1024,6 hPa 0,0 mm 0,0 km/h (0 Bft) SO 135 -5,3 C 0,0 km/h (0 Bft)
12.12.2015 21:00 -2,6 C -3,2 C 79 % 1024,6 hPa 0,0 mm 0,0 km/h (0 Bft) S 180 -5,7 C 0,0 km/h (0 Bft)
12.12.2015 21:05 -2,7 C -3,3 C 79 % 1024,6 hPa 0,0 mm 0,0 km/h (0 Bft) S 180 -5,8 C 0,0 km/h (0 Bft)
12.12.2015 21:10 -2,5 C -3,1 C 79 % 1024,6 hPa 0,0 mm 0,0 km/h (0 Bft) S 180 -5,6 C 0,0 km/h (0 Bft)
12.12.2015 21:15 -3,1 C -3,5 C 79 % 1024,4 hPa 0,0 mm 0,0 km/h (0 Bft) S-SO 157 -6,2 C 0,0 km/h (0 Bft)
12.12.2015 21:20 -2,3 C -2,9 C 77 % 1024,4 hPa 0,0 mm 0,3 km/h (0 Bft) SO 135 -5,8 C 0,0 km/h (0 Bft)
12.12.2015 21:25 -2,4 C -3,0 C 81 % 1024,4 hPa 0,0 mm 0,3 km/h (0 Bft) SO 135 -5,2 C 0,0 km/h (0 Bft)
12.12.2015 21:30 -2,6 C -3,1 C 81 % 1024,4 hPa 0,0 mm 0,0 km/h (0 Bft) SO 135 -5,4 C 0,0 km/h (0 Bft)
12.12.2015 21:35 -2,5 C -3,1 C 81 % 1024,3 hPa 0,0 mm 0,0 km/h (0 Bft) SO 135 -5,3 C 0,0 km/h (0 Bft)
12.12.2015 21:40 -2,8 C -3,3 C 80 % 1024,3 hPa 0,0 mm 0,0 km/h (0 Bft) SO 135 -5,8 C 0,0 km/h (0 Bft)
12.12.2015 21:45 -2,9 C -3,4 C 80 % 1024,3 hPa 0,0 mm 0,0 km/h (0 Bft) SO 135 -5,9 C 0,0 km/h (0 Bft)
12.12.2015 21:50 -2,9 C -3,5 C 80 % 1024,3 hPa 0,0 mm 0,0 km/h (0 Bft) SO 135 -5,9 C 0,0 km/h (0 Bft)
12.12.2015 21:55 -3,2 C -3,7 C 80 % 1024,3 hPa 0,0 mm 0,0 km/h (0 Bft) SO 135 -6,1 C 0,0 km/h (0 Bft)
12.12.2015 22:00 -3,4 C -3,8 C 80 % 1024,3 hPa 0,0 mm 0,0 km/h (0 Bft) SO 135 -6,3 C 0,0 km/h (0 Bft)
12.12.2015 22:05 -3,5 C -3,9 C 80 % 1024,3 hPa 0,0 mm 0,0 km/h (0 Bft) SO 135 -6,4 C 0,0 km/h (0 Bft)
12.12.2015 22:10 -3,5 C -3,9 C 80 % 1024,3 hPa 0,0 mm 0,0 km/h (0 Bft) SO 135 -6,4 C 0,0 km/h (0 Bft)
12.12.2015 22:15 -3,6 C -4,0 C 80 % 1024,0 hPa 0,0 mm 0,0 km/h (0 Bft) SO 135 -6,5 C 0,0 km/h (0 Bft)
12.12.2015 22:20 -3,8 C -4,2 C 80 % 1024,0 hPa 0,0 mm 0,0 km/h (0 Bft) SO 135 -6,7 C 0,0 km/h (0 Bft)
12.12.2015 22:25 -3,5 C -4,0 C 80 % 1024,0 hPa 0,0 mm 0,0 km/h (0 Bft) SO 135 -6,4 C 0,0 km/h (0 Bft)
12.12.2015 22:30 -3,3 C -3,8 C 81 % 1024,0 hPa 0,0 mm 0,0 km/h (0 Bft) SO 135 -6,1 C 0,0 km/h (0 Bft)
12.12.2015 22:35 -3,2 C -3,7 C 77 % 1023,9 hPa 0,0 mm 0,0 km/h (0 Bft) SO 135 -6,6 C 0,0 km/h (0 Bft)
12.12.2015 22:40 -3,2 C -3,8 C 81 % 1023,9 hPa 0,0 mm 0,0 km/h (0 Bft) SO 135 -6,0 C 0,0 km/h (0 Bft)
12.12.2015 22:45 -3,2 C -3,6 C 77 % 1023,9 hPa 0,0 mm 0,0 km/h (0 Bft) SO 135 -6,6 C 0,0 km/h (0 Bft)
12.12.2015 22:50 -3,2 C -3,7 C 81 % 1023,9 hPa 0,0 mm 0,0 km/h (0 Bft) SO 135 -6,0 C 0,0 km/h (0 Bft)
12.12.2015 22:55 -3,5 C -3,9 C 81 % 1023,9 hPa 0,0 mm 0,0 km/h (0 Bft) SO 135 -6,3 C 0,0 km/h (0 Bft)
12.12.2015 23:00 -3,9 C -4,2 C 80 % 1023,9 hPa 0,0 mm 0,0 km/h (0 Bft) SO 135 -6,8 C 0,0 km/h (0 Bft)
12.12.2015 23:05 -3,7 C -4,1 C 81 % 1023,9 hPa 0,0 mm 0,0 km/h (0 Bft) SO 135 -6,5 C 0,0 km/h (0 Bft)
12.12.2015 23:10 -3,5 C -3,9 C 78 % 1023,9 hPa 0,0 mm 0,0 km/h (0 Bft) SO 135 -6,8 C 0,0 km/h (0 Bft)
12.12.2015 23:15 -3,4 C -3,9 C 82 % 1024,0 hPa 0,0 mm 0,0 km/h (0 Bft) SO 135 -6,0 C 0,0 km/h (0 Bft)
12.12.2015 23:20 -3,2 C -3,7 C 78 % 1024,0 hPa 0,0 mm 0,0 km/h (0 Bft) SO 135 -6,5 C 0,0 km/h (0 Bft)
12.12.2015 23:25 -3,1 C -3,7 C 82 % 1024,0 hPa 0,0 mm 0,0 km/h (0 Bft) SO 135 -5,7 C 0,0 km/h (0 Bft)
12.12.2015 23:30 -3,2 C -3,8 C 82 % 1024,0 hPa 0,0 mm 0,0 km/h (0 Bft) SO 135 -5,8 C 0,0 km/h (0 Bft)
12.12.2015 23:35 -3,3 C -3,9 C 82 % 1024,0 hPa 0,0 mm 0,0 km/h (0 Bft) SO 135 -5,9 C 0,0 km/h (0 Bft)
12.12.2015 23:40 -3,9 C -4,3 C 81 % 1024,0 hPa 0,0 mm 0,0 km/h (0 Bft) SO 135 -6,7 C 0,0 km/h (0 Bft)
12.12.2015 23:45 -3,9 C -4,3 C 81 % 1024,0 hPa 0,0 mm 0,0 km/h (0 Bft) SO 135 -6,7 C 0,0 km/h (0 Bft)
12.12.2015 23:50 -4,1 C -4,4 C 81 % 1024,0 hPa 0,0 mm 0,0 km/h (0 Bft) SO 135 -6,9 C 0,0 km/h (0 Bft)
12.12.2015 23:55 -4,0 C -4,4 C 81 % 1023,8 hPa 0,0 mm 0,0 km/h (0 Bft) SO 135 -6,8 C 0,0 km/h (0 Bft)
_ Min-Zeit 23:50 23:55 14:40 23:55 - 23:55 - - 23:50 23:55
Minimum _ -4,1 C -4,4 C 59 % 1023,8 hPa - 0,0 km/h (0 Bft) - - -6,9 C 0,0 km/h (0 Bft)
_ Max-Zeit 12:36 14:10 23:35 00:10 23:55 02:10 - - 12:36 00:55
Maximum _ 6,1 C 8,3 C 82 % 1028,6 hPa 0,0 mm 13,5 km/h
W (3 Bft)
- - -1,3 C 33,4 km/h
W (5 Bft)
Durchschnitt _ 2,5 C 2,2 C 67 % 1026,5 hPa #0,0 mm 4,7 km/h (1 Bft) W-SW - -3,1 C 6,2 km/h (2 Bft)